Home   Weather   Fredericton   Past weeks

Flag for Canada Past Weather in Fredericton, New Brunswick, Canada — Yesterday and Last 2 Weeks

Now
-4 °F

Clear.


Feels Like: -16 °F
Forecast: -5 / 26 °F
Wind: 6 mph from Southwest

Location: Fredericton

Current Time: Jan 16, 2017 at 6:56:17 am

Latest Report: Jan 16, 2017 at 6:00 am


Visibility: 9 mi

Pressure: 30.42 "Hg

Humidity: 84%

Dew Point: -8 °F

Location of FrederictonLocation

Past Weather in Fredericton — Graph

°F

Fredericton Temperature Yesterday

Maximum temperature yesterday: 18 °F (at 10:00 am)
Minimum temperature yesterday: 0 °F (at 11:00 pm)
Average temperature yesterday: 13 °F

High & Low Weather Summary for the Past Weeks

 TemperatureHumidityPressure
High48 °F (Jan 11, 1:03 pm)100% (Jan 1, 6:00 am)30.73 "Hg (Jan 1, 6:00 am)
Low-13 °F (Jan 10, 12:00 am)32% (Jan 13, 1:00 pm)29.13 "Hg (Jan 4, 1:00 pm)
Average20 °F82%30.08 "Hg
* Reported Jan 1 5:00 am — Jan 16 5:00 am, Fredericton, Weather by CustomWeather, © 2017

Note: Actual official high and low records may vary slightly from our data, if they occured in-between our weather recording intervals... More about our weather records

Advertising

Fredericton Weather History for the Previous 24 Hours

Scroll right to see more
 ConditionsComfort  
Time TempWeatherWind HumidityBarometerVisibility
5:00 am
Mon, Jan 16
-4 °FClear.5 mph84%30.41 "Hg9 mi
4:00 am-2 °FPassing clouds.5 mph84%30.42 "Hg9 mi
3:00 am-2 °FPassing clouds.2 mph84%30.42 "Hg9 mi
2:00 am-4 °FClear.3 mph84%30.41 "Hg9 mi
1:00 am-2 °FClear.2 mph84%30.41 "Hg9 mi
12:00 am-2 °FClear.3 mph84%30.42 "Hg9 mi
11:00 pm
Sun, Jan 15
0 °FClear.2 mph78%30.42 "Hg9 mi
10:00 pm5 °FClear.5 mph60%30.40 "Hg9 mi
9:00 pm5 °FClear.3 mph66%30.39 "Hg9 mi
8:00 pm7 °FClear.7 mph56%30.38 "Hg9 mi
7:00 pm10 °FClear.6 mph47%30.34 "Hg9 mi
6:00 pm10 °FClear.7 mph47%30.32 "Hg9 mi
5:00 pm14 °FSunny.9 mph41%30.29 "Hg9 mi
4:00 pm16 °FSunny.9 mph41%30.25 "Hg9 mi
3:00 pm18 °FSunny.9 mph35%30.23 "Hg9 mi
2:00 pm18 °FScattered clouds.15 mph41%30.21 "Hg9 mi
1:00 pm18 °FBroken clouds.13 mph49%30.19 "Hg9 mi
12:18 pm18 °FPartly sunny.12 mph58%30.19 "Hg9 mi
12:07 pm18 °FLight snow. Mostly cloudy.14 mph58%30.19 "Hg9 mi
11:50 am18 °FLight snow. Overcast.12 mph62%30.19 "Hg8 mi
11:00 am18 °FPassing clouds.10 mph62%30.19 "Hg9 mi
10:00 am18 °FScattered clouds.13 mph68%30.17 "Hg9 mi
9:27 am16 °FScattered clouds.6 mph67%30.15 "Hg9 mi
9:00 am12 °FScattered clouds.6 mph67%30.13 "Hg9 mi
8:00 am9 °FPassing clouds.2 mph78%30.10 "Hg9 mi
7:00 am12 °FPassing clouds.5 mph67%30.09 "Hg9 mi
6:00 am14 °FOvercast.5 mph67%30.09 "Hg9 mi
Weather by CustomWeather, © 2017

See weather overviewHow to use our weather pages